Stations météo

réclame
Mon MeteoGroup
Catania/Sigonella, Italie (16459): Température de l'air & dewpoint: 05.12.2017 05:00:00 - 11.12.2017 05:00:00 (CET)Catania/Sigonella, Italie (16459): Vitesse du vent: 05.12.2017 05:00:00 - 11.12.2017 05:00:00 (CET)Catania/Sigonella, Italie (16459): Direction du vent: 05.12.2017 05:00:00 - 11.12.2017 05:00:00 (CET)Catania/Sigonella, Italie (16459): reduced air pressure: 05.12.2017 05:00:00 - 11.12.2017 05:00:00 (CET)Catania/Sigonella, Italie (16459): visibility: 05.12.2017 05:00:00 - 11.12.2017 05:00:00 (CET)
Date & Time tt [°C] td [°C] ff [km/h] ff [knt] dd ppp [hPa] vv [km]
11.12.2017 05:00:00 - - - - - - -
11.12.2017 04:00:00 5,8 5,8 8 4 W 1020,6 15
11.12.2017 03:00:00 5,0 5,0 5 3 SW - 10
11.12.2017 02:00:00 4,0 4,0 8 4 SW - 10
11.12.2017 01:00:00 3,8 3,5 13 7 WNW 1021,5 15
11.12.2017 00:00:00 4,0 3,0 11 6 WSW - 10
10.12.2017 23:00:00 4,0 3,0 13 7 WNW - 10
10.12.2017 22:00:00 4,6 3,9 8 4 WNW 1021,9 15
10.12.2017 21:00:00 4,0 4,0 2 1 - - 10
10.12.2017 20:00:00 5,0 4,0 4 2 NNW - 10
10.12.2017 19:00:00 7,0 3,3 8 4 SW 1021,3 15
10.12.2017 18:00:00 7,0 2,0 11 6 SW - 10
10.12.2017 17:00:00 10,0 2,0 5 3 SW - 10
10.12.2017 16:00:00 15,0 1,2 8 4 WSW 1020,7 15
10.12.2017 15:00:00 16,0 2,0 4 2 SSW - 10
10.12.2017 14:00:00 16,0 1,0 9 5 SW - 10
10.12.2017 13:00:00 15,0 1,2 9 5 WNW 1022,3 12
10.12.2017 12:00:00 14,0 5,0 11 6 W - 10
10.12.2017 11:00:00 11,0 5,0 15 8 WNW - 10
10.12.2017 10:00:00 10,0 4,8 15 8 W 1022,6 12
10.12.2017 09:00:00 8,0 5,0 15 8 WNW - 10
10.12.2017 08:00:00 6,0 5,0 8 4 NW - 10
10.12.2017 07:00:00 5,6 4,9 13 7 NW 1020,9 12
10.12.2017 06:00:00 5,0 4,0 16 9 W - 10
10.12.2017 05:00:00 6,0 4,0 15 8 W - 10
10.12.2017 04:00:00 6,0 4,2 16 9 W 1019,7 12
10.12.2017 03:00:00 6,0 6,0 21 11 SW - 10
10.12.2017 02:00:00 6,0 4,0 16 9 WSW - 10
10.12.2017 01:00:00 7,0 3,6 18 10 WSW 1019,2 12
10.12.2017 00:00:00 8,0 4,0 16 9 W - 10
09.12.2017 23:00:00 10,0 8,0 11 6 WSW - 10
09.12.2017 22:00:00 10,0 5,6 21 11 W 1018,5 14
09.12.2017 21:00:00 10,0 5,0 28 15 W - 10
09.12.2017 20:00:00 10,0 7,0 18 10 W - 10
09.12.2017 19:00:00 9,0 8,1 9 5 W 1016,6 15
09.12.2017 18:00:00 11,0 10,0 16 9 WSW - 10
09.12.2017 17:00:00 12,0 12,0 21 11 WSW - 10
09.12.2017 16:00:00 12,8 11,0 26 14 WSW 1015,7 16
09.12.2017 15:00:00 15,0 7,0 26 14 W - 10
09.12.2017 14:00:00 16,0 5,0 28 15 WSW - 10
09.12.2017 13:00:00 17,0 5,0 41 22 WSW 1016,4 18
09.12.2017 12:00:00 17,0 5,0 39 21 WSW - 10
09.12.2017 11:00:00 16,0 8,0 28 15 WSW - 10
09.12.2017 10:00:00 13,6 10,2 15 8 W 1018,8 16
09.12.2017 09:00:00 9,0 9,0 4 2 WNW - 10
09.12.2017 08:00:00 7,0 7,0 9 5 W - 10
09.12.2017 07:00:00 4,8 4,8 11 6 N 1020,7 10
09.12.2017 06:00:00 5,0 5,0 8 4 W - 10
09.12.2017 05:00:00 5,0 5,0 9 5 W - 10
09.12.2017 04:00:00 5,2 5,2 13 7 NW 1020,9 10
09.12.2017 03:00:00 5,0 5,0 9 5 W - 10
09.12.2017 02:00:00 - - - - - - -
09.12.2017 01:00:00 6,6 6,6 5 3 WSW 1023,8 10
09.12.2017 00:00:00 8,0 8,0 9 5 WNW - 10
08.12.2017 23:00:00 8,0 8,0 9 5 W - 10
08.12.2017 22:00:00 8,6 8,6 21 11 W 1024,6 10
08.12.2017 21:00:00 9,0 8,0 18 10 W - 10
08.12.2017 20:00:00 10,0 8,0 18 10 W - 10
08.12.2017 19:00:00 9,8 4,6 8 4 NNW 1024,9 12
08.12.2017 18:00:00 10,0 4,0 5 3 SSE - 10
08.12.2017 17:00:00 12,0 3,0 5 3 SW - 10
08.12.2017 16:00:00 15,0 -0,3 13 7 WSW 1024,8 14
08.12.2017 15:00:00 17,0 1,0 9 5 SE - 10
08.12.2017 14:00:00 18,0 -1,0 8 4 WSW - 10
08.12.2017 13:00:00 16,8 -0,9 8 4 WNW 1026,7 10
08.12.2017 12:00:00 17,0 3,0 9 5 W - 10
08.12.2017 11:00:00 14,0 5,0 8 4 W - 10
08.12.2017 10:00:00 10,6 4,5 9 5 W 1029,6 10
08.12.2017 09:00:00 7,0 4,0 11 6 W - 10
08.12.2017 08:00:00 4,0 4,0 13 7 W - 10
08.12.2017 07:00:00 1,2 1,2 11 6 W 1030,0 10
08.12.2017 06:00:00 2,0 2,0 13 7 W - 10
08.12.2017 05:00:00 1,0 1,0 8 4 WSW - 10
08.12.2017 04:00:00 1,0 1,0 9 5 WSW 1030,6 10
08.12.2017 03:00:00 2,0 2,0 5 3 W - 10
08.12.2017 02:00:00 2,0 2,0 11 6 W - 10
08.12.2017 01:00:00 2,0 2,0 5 3 WSW 1031,5 10
08.12.2017 00:00:00 2,0 2,0 11 6 WSW - 10
07.12.2017 23:00:00 4,0 4,0 13 7 W - 10
07.12.2017 22:00:00 4,2 4,2 11 6 W 1032,2 10
07.12.2017 21:00:00 4,0 4,0 8 4 W - 10
07.12.2017 20:00:00 8,0 6,0 5 3 NW - 10
07.12.2017 19:00:00 8,4 4,8 2 1 SW 1032,4 10
07.12.2017 18:00:00 10,0 4,0 8 4 WSW - 10
07.12.2017 17:00:00 12,0 1,0 11 6 ESE - 10
07.12.2017 16:00:00 14,8 -1,7 18 10 E 1031,1 10
07.12.2017 15:00:00 18,0 -6,0 2 1 S - 10
07.12.2017 14:00:00 18,0 -2,0 5 3 WSW - 10
07.12.2017 13:00:00 17,4 -2,3 4 2 NW 1032,9 10
07.12.2017 12:00:00 16,0 0,0 5 3 WSW - 10
07.12.2017 11:00:00 14,0 0,0 5 3 W - 10
07.12.2017 10:00:00 10,4 4,1 8 4 W 1034,3 10
07.12.2017 09:00:00 6,0 3,0 8 4 WSW - 10
07.12.2017 08:00:00 1,0 1,0 8 4 SW - 10
07.12.2017 07:00:00 0,0 0,0 9 5 WSW 1034,5 20
07.12.2017 06:00:00 1,0 1,0 9 5 WSW - 10
07.12.2017 05:00:00 1,0 0,0 9 5 W - 10
07.12.2017 04:00:00 1,0 1,0 8 4 W 1034,8 15
07.12.2017 03:00:00 1,0 1,0 9 5 WSW - 10
07.12.2017 02:00:00 0,0 0,0 5 3 SSW - 10
07.12.2017 01:00:00 2,4 2,4 5 3 WSW 1035,0 15
07.12.2017 00:00:00 2,0 2,0 11 6 W - 10
06.12.2017 23:00:00 5,0 2,0 9 5 WNW - 10
06.12.2017 22:00:00 3,8 3,8 11 6 W 1035,0 15
06.12.2017 21:00:00 5,0 5,0 5 3 WSW - 10
06.12.2017 20:00:00 8,0 4,0 9 5 W - 10
06.12.2017 19:00:00 8,4 1,8 8 4 WNW 1034,7 10
06.12.2017 18:00:00 9,0 -1,0 5 3 SE - 10
06.12.2017 17:00:00 12,0 -2,0 8 4 SE - 10
06.12.2017 16:00:00 14,8 -1,3 8 4 SSE 1034,5 10
06.12.2017 15:00:00 16,0 -4,0 4 2 SE - 10
06.12.2017 14:00:00 16,0 -4,0 5 3 SSW - 10
06.12.2017 13:00:00 17,0 -2,1 5 3 S 1035,0 10
06.12.2017 12:00:00 16,0 0,0 8 4 W - 10
06.12.2017 11:00:00 14,0 4,0 5 3 WSW - 10
06.12.2017 10:00:00 10,6 3,6 5 3 WSW 1036,4 10
06.12.2017 09:00:00 6,0 4,0 9 5 W - 10
06.12.2017 08:00:00 1,0 1,0 9 5 W - 10
06.12.2017 07:00:00 -0,2 -0,2 9 5 W 1035,7 20
06.12.2017 06:00:00 - - - - - - -
06.12.2017 05:00:00 - - - - - - -
06.12.2017 04:00:00 1,4 1,4 5 3 WSW 1034,7 16
06.12.2017 03:00:00 - - - - - - -
06.12.2017 02:00:00 - - - - - - -
06.12.2017 01:00:00 3,8 3,8 8 4 ENE 1033,9 16
06.12.2017 00:00:00 - - - - - - -
05.12.2017 23:00:00 - - - - - - -
05.12.2017 22:00:00 6,2 3,0 11 6 W 1033,6 16
05.12.2017 21:00:00 - - - - - - -
05.12.2017 20:00:00 - - - - - - -
05.12.2017 19:00:00 10,0 4,4 11 6 NW 1032,8 15
05.12.2017 18:00:00 - - - - - - -
05.12.2017 17:00:00 - - - - - - -
05.12.2017 16:00:00 14,8 3,3 11 6 NW 1031,5 15
05.12.2017 15:00:00 - - - - - - -
05.12.2017 14:00:00 - - - - - - -
05.12.2017 13:00:00 15,0 2,5 13 7 N 1030,9 15
05.12.2017 12:00:00 - - - - - - -
05.12.2017 11:00:00 - - - - - - -
05.12.2017 10:00:00 16,4 10,5 5 3 N 1031,6 12
05.12.2017 09:00:00 - - - - - - -
05.12.2017 08:00:00 5,0 5,0 5 3 SSW - 10
05.12.2017 07:00:00 2,4 2,4 4 2 SW 1029,1 14
05.12.2017 06:00:00 2,0 2,0 13 7 SW - 10
05.12.2017 05:00:00 4,0 4,0 5 3 SSW - 10

tt = Température de l'air
td = dewpoint
ff = Vitesse du vent
dd = Direction du vent
ppp = reduced air pressure
vv = visibility

stations d'obs. à proximité